Home > Weather > Debrecen > Past weeks

Flag for Hungary Weather for the Past 2 Weeks in Debrecen, Hungary

Now
55 °F

Passing clouds.


Feels Like: 51 °F
Forecast: 39 / 50 °F
Wind: 21 mph from South

Location: Oradea Airport

Current Time: Feb 10, 2016 at 12:37:43 AM

Latest Report: Feb 10, 2016 at 12:00 AM


Visibility: N/A

Pressure: 29.65 "Hg

Humidity: 59%

Dew point: 41 °F

Location of DebrecenLocation

Historic Weather in Debrecen — Graph

°F

Debrecen Temperature Yesterday

Maximum temperature yesterday: 55 °F (at 11:00 PM)
Minimum temperature yesterday: 46 °F (at 7:00 AM)
Average temperature yesterday: 51 °F

High & Low Weather Summary for the Past Weeks

 TemperatureHumidityPressure
High55 °F (Feb 9, 11:00 PM)100% (Jan 26, 2:00 AM)30.45 "Hg (Jan 26, 2:00 AM)
Low28 °F (Feb 6, 1:00 AM)47% (Feb 8, 9:30 AM)29.68 "Hg (Feb 9, 11:00 PM)
Average42 °F82%30.17 "Hg
* Reported Jan 25 11:00 PM — Feb 9 11:00 PM, Debrecen, Weather by CustomWeather, © 2016

Note: Actual official high and low records may vary slightly from our data, if they occured in-between our weather recording intervals... More about our weather records

Advertising

Debrecen Weather History for the Previous 24 Hours

 ConditionsComfort  
Time TempWeatherWind HumidityBarometerVisibility
11:00 PM
Tue, Feb 9
55 °FPassing clouds.18 mph59%29.68 "HgN/A
10:00 PM54 °FOvercast.8 mph63%29.71 "HgN/A
9:30 PM54 °FOvercast.9 mph63%29.74 "HgN/A
9:00 PM52 °FClear.8 mph67%29.77 "Hg10 mi
8:30 PM52 °FClear.8 mph67%29.77 "Hg10 mi
8:00 PM50 °FClear.8 mph71%29.77 "Hg10 mi
7:30 PM52 °FClear.9 mph67%29.80 "Hg10 mi
7:00 PM52 °FClear.13 mph67%29.80 "Hg10 mi
6:30 PM54 °FClear.14 mph63%29.80 "Hg10 mi
6:00 PM54 °FClear.14 mph63%29.83 "Hg10 mi
5:00 PM54 °FClear.14 mph67%29.86 "Hg10 mi
4:30 PM54 °FSunny.14 mph67%29.86 "Hg10 mi
4:00 PM54 °FSunny.12 mph67%29.86 "Hg10 mi
3:30 PM54 °FSunny.12 mph67%29.89 "Hg10 mi
3:00 PM54 °FSunny.14 mph72%29.89 "Hg10 mi
2:30 PM54 °FSunny.16 mph72%29.89 "Hg10 mi
2:00 PM54 °FSunny.16 mph72%29.89 "Hg10 mi
1:30 PM54 °FSunny.15 mph67%29.92 "Hg10 mi
1:00 PM52 °FScattered clouds.15 mph77%29.95 "HgN/A
12:30 PM52 °FScattered clouds.16 mph72%29.95 "HgN/A
11:30 AM52 °FPartly sunny.18 mph72%29.98 "HgN/A
11:00 AM52 °FScattered clouds.17 mph72%29.98 "HgN/A
10:30 AM50 °FPartly sunny.16 mph76%29.98 "HgN/A
10:00 AM48 °FPartly sunny.18 mph76%29.98 "HgN/A
9:00 AM48 °FScattered clouds.17 mph76%29.98 "HgN/A
8:30 AM46 °FLight rain. Partly sunny.15 mph82%29.98 "HgN/A
7:30 AM48 °FLight rain. Partly sunny.18 mph76%29.98 "HgN/A
7:00 AM46 °FSprinkles. Broken clouds.18 mph82%29.95 "HgN/A
6:30 AM48 °FPassing clouds.18 mph71%29.95 "HgN/A
5:30 AM48 °FLight rain. Passing clouds.17 mph71%29.95 "HgN/A
4:30 AM48 °FLight rain. Passing clouds.16 mph71%29.95 "HgN/A
4:00 AM48 °FLight rain. Clear.18 mph66%29.95 "HgN/A
3:00 AM48 °FSprinkles. Passing clouds.20 mph66%29.95 "HgN/A
2:00 AM50 °FMostly cloudy.21 mph58%29.95 "HgN/A
1:00 AM48 °FPassing clouds.18 mph66%29.98 "HgN/A
12:00 AM52 °FSprinkles. Passing clouds.21 mph54%29.98 "HgN/A
Weather by CustomWeather, © 2016

See weather overviewHow to use our weather pages